SCP
0 0 0 0 0 0 -0 -0 -0 0 0 -0 0 -0 -0 0 -0 0 0 0 -0 -0 -0 -0 -0 -0 -0 -0 -0 -0 -0 -0 -0 -0 -0 -0 -0 -0 -0 -0 -0 -0 -0 -0 -0 -0 -0 -0 -0
0 0 0 0 0 0 -0 0 0 -0 -0 -0 -0 0 0 -0 0 0 0 0 -0 -0 -0 -0 -0 -0 -0 -0 -0 -0 -0 -0 -0 -0 -0 -0 -0 -0 -0 -0 -0 -0 -0 -0 -0 -0 -0 -0 -0
0 0 0 0 0 0 -0 -0 -0 -0 -0 -0 0 -0 -0 0 -0 -0 -0 -0 -0 -0 -0 -0 -0 -0 -0 -0 -0 -0 -0 -0 -0 -0 -0 -0 -0 -0 -0 -0 -0 -0 -0 -0 -0 -0 -0 -0 -0
0 0 0 0 0 0 -0 -0 -0 -0 -0 0 0 -0 0 0 -0 -0 -0 -0 -0 -0 -0 -0 -0 -0 -0 -0 -0 -0 -0 -0 -0 -0 -0 -0 -0 -0 -0 -0 -0 -0 -0 -0 -0 -0 -0 -0 -0
0 0 0 -0 0 0 -0 -0 -0 -0 -0 -0 0 -0 -0 0 -0 -0 -0 -0 -0 -0 -0 -0 -0 -0 -0 -0 -0 -0 -0 -0 -0 -0 -0 -0 -0 -0 -0 -0 -0 -0 -0 -0 -0 -0 -0 -0 -0
0 0 0 0 -0 -0 0 0 0 0 0 0 0 0 -0 -0 -0 -0 -0 -0 -0 -0 -0 -0 0 -0 -0 -0 -0 -0 -0 -0 -0 -0 -0 -0 -0 -0 -0 -0 -0 -0 -0 -0 -0 -0 -0 -0 -0
0 0 0 0 0 0 0 0 0 0 0 0 0 0 0 -0 -0 -0 -0 -0 -0 -0 -0 -0 0 0 0 -0 -0 -0 -0 -0 -0 -0 -0 -0 -0 -0 -0 -0 -0 -0 -0 -0 -0 -0 -0 -0 -0
0 0 0 0 0 0 0 0 0 0 0 0 0 0 0 -0 -0 -0 0 0 -0 -0 -0 0 0 0 0 0 0 -0 -0 0 -0 -0 0 0 0 0 -0 0 -0 -0 -0 -0 -0 -0 -0 -0 -0
0 0 0 0 0 0 0 0 0 0 0 0 0 0 0 -0 -0 0 0 0 0 0 0 0 0 0 0 0 0 0 0 0 0 0 0 0 0 0 0 0 0 -0 -0 -0 -0 -0 -0 0 -0
0 0 0 0 0 0 0 0 0 0 0 0 0 0 0 -0 0 0 0 0 0 0 0 0 0 0 0 0 0 0 0 0 0 0 0 0 0 0 0 0 0 0 0 -0 -0 0 0 0 0
0 0 0 0 0 0 0 0 0 0 0 0 -0 -0 -0 0 0 0 0 0 0 0 0 0 0 0 0 0 0 0 0 0 0 0 0 0 0 0 0 0 0 0 0 0 0 0 0 0 0
0 0 0 0 0 0 0 0 0 0 -0 0 0 -0 -0 -0 0 0 0 0 0 0 0 0 0 0 0 0 0 0 0 0 0 0 0 0 0 0 0 0 0 0 0 0 0 0 0 0 0
0 0 0 0 0 0 0 0 0 -0 0 0 0 0 -0 0 0 0 0 0 0 0 0 0 0 0 0 0 0 0 0 0 0 0 0 0 0 0 0 0 0 0 0 0 0 0 0 0 0
0 0 0 0 0 0 0 0 0 0 0 -0 0 0 0 0 0 0 0 0 0 0 0 0 0 0 0 0 0 0 0 0 0 0 0 0 0 0 0 0 0 0 0 0 0 0 0 0 0
0 0 0 0 0 0 0 0 0 0 0 0 0 0 0 0 0 0 0 0 0 0 0 0 0 0 0 0 0 0 0 0 0 0 0 0 0 0 0 0 0 0 0 0 0 0 0 0 0
0 0 0 0 0 0 0 0 0 0 0 0 0 0 0 0 0 0 0 0 0 0 0 0 0 0 0 0 0 0 0 0 0 0 0 0 0 0 0 0 0 0 0 0 0 0 0 0 0
0 0 0 0 0 0 0 0 0 0 0 0 0 0 0 0 0 0 0 0 0 0 0 0 0 0 0 0 0 0 0 0 0 0 0 0 0 0 0 0 0 0 0 0 0 0 0 0 0
0 0 0 0 0 0 0 0 0 0 0 0 0 0 0 0 0 0 0 0 0 0 0 0 0 0 0 0 0 0 0 0 0 0 0 0 0 0 0 0 0 0 0 0 0 0 0 0 0
0 0 0 0 0 0 0 0 0 0 0 0 0 0 0 0 0 0 0 0 0 0 0 0 0 0 0 0 0 0 0 0 0 0 0 0 0 0 0 0 0 0 0 0 0 0 0 0 0
0 0 0 0 0 0 0 0 0 0 0 0 0 0 0 0 0 0 0 0 0 0 0 0 0 0 0 0 0 0 0 0 0 0 0 0 0 0 0 0 0 0 0 0 0 0 0 0 0
0 0 0 0 0 0 0 -0 -0 0 0 0 0 0 0 0 0 0 0 0 0 0 0 0 0 0 0 0 0 0 0 0 0 0 0 0 0 0 0 0 0 0 0 0 0 0 0 0 0
0 0 0 0 0 0 0 -0 0 0 0 0 0 0 0 0 0 0 0 0 0 0 0 0 0 0 0 0 0 0 0 0 0 0 0 0 0 0 0 0 0 0 0 0 0 0 0 0 0
0 0 0 0 0 0 0 0 -0 -0 0 0 0 0 0 0 0 0 0 0 0 0 0 0 0 0 0 0 0 0 0 0 0 0 0 0 0 0 0 0 0 0 0 0 0 0 0 0 0
0 0 0 0 0 0 0 0 -0 0 0 0 0 0 0 0 0 0 0 0 0 0 0 0 0 0 0 0 0 0 0 0 0 0 0 0 0 0 0 0 0 0 0 0 0 0 0 0 0
0 0 0 0 0 0 0 0 0 0 0 0 0 0 0 0 0 0 0 0 0 0 0 0 0 0 0 0 0 0 0 0 0 0 0 0 0 0 0 0 0 0 0 0 0 0 0 0 0
0 0 0 0 0 0 0 0 0 0 0 0 0 0 0 0 0 0 0 0 0 0 0 0 0 0 0 0 0 0 0 0 0 0 0 0 0 0 0 0 0 0 0 0 0 0 0 0 0
0 0 0 0 0 0 0 0 0 0 0 0 0 0 0 0 0 0 0 0 0 0 0 0 0 0 0 0 0 0 0 0 0 0 0 0 0 0 0 0 0 0 0 0 0 0 0 0 0
0 0 0 0 0 0 0 0 0 0 0 0 0 0 0 0 0 0 0 0 0 0 0 0 0 0 0 0 0 0 0 0 0 0 0 0 0 0 0 0 0 0 0 0 0 0 0 0 0
0 0 0 0 0 0 0 0 0 0 0 0 0 0 0 0 0 0 0 0 0 0 0 0 0 0 0 0 0 0 0 0 0 0 0 0 0 0 0 0 0 0 0 0 0 0 0 0 0
0 0 0 0 0 0 0 0 0 0 0 0 0 0 0 0 0 0 0 0 0 0 0 -0 -0 0 0 0 0 0 0 0 0 0 0 0 0 0 0 0 0 0 0 0 0 0 0 0 0
Wind_Speed_500mb
5 4 6 10 4 6 9 8 10 12 10 10 12 13 7 28 10 7 33 19 33 27 34 27 24 23 18 14 15 18 20 23 26 27 28 27 26 23 31 39 25 19 27 28 33 33 34 37 41
6 6 6 10 6 4 7 14 9 16 21 14 9 2 2 9 14 25 32 30 38 22 34 30 26 24 18 15 14 17 19 22 24 25 27 28 27 26 30 32 28 21 23 30 33 33 34 37 41
6 7 6 5 6 10 10 5 20 23 15 11 9 7 8 11 13 25 16 40 37 25 27 32 29 25 20 17 15 15 16 19 21 23 25 27 27 26 27 24 26 21 28 31 32 33 34 36 41
7 2 11 5 7 13 13 15 35 21 8 9 6 16 11 16 21 18 34 40 36 26 22 26 29 27 22 19 16 15 15 15 17 19 22 24 26 26 26 24 23 23 27 29 29 31 31 33 38
5 7 7 8 8 10 10 19 26 15 21 20 7 10 12 21 25 21 42 40 37 32 28 26 30 28 24 21 17 15 14 13 15 17 19 21 23 22 22 22 22 24 26 27 28 29 29 32 36
8 6 8 10 11 15 8 11 11 14 17 18 9 3 13 12 20 28 35 39 32 32 29 28 32 30 25 22 19 16 14 12 13 14 17 19 20 20 20 21 22 25 26 27 27 26 26 28 33
4 4 13 15 6 11 9 14 12 13 20 15 5 2 17 17 22 29 32 35 33 31 31 34 34 31 27 23 19 16 14 13 12 11 12 15 17 20 22 23 24 25 27 27 27 26 26 29 33
5 2 15 11 8 3 14 18 6 8 7 21 13 1 12 24 29 28 36 37 35 31 31 30 36 34 31 27 22 19 16 14 15 13 14 14 17 21 23 24 25 25 26 27 27 27 26 30 28
4 4 8 10 12 4 25 12 6 7 10 9 10 3 19 24 30 25 38 37 38 34 33 33 33 35 34 30 27 23 20 17 17 14 12 8 12 17 20 19 20 21 22 23 25 25 25 23 18
6 5 10 17 18 11 18 13 19 5 13 10 13 17 27 25 29 34 39 45 44 42 36 34 35 34 32 30 32 29 25 19 18 16 15 11 8 13 12 12 13 14 14 16 20 21 21 20 13
8 6 12 19 16 12 11 6 10 8 10 30 31 34 31 29 29 37 37 43 46 40 44 41 36 36 40 37 35 34 32 24 25 23 22 14 11 8 7 7 9 8 8 8 9 8 9 9 12
3 18 5 7 5 4 3 7 7 24 27 3 13 13 37 38 37 39 39 44 45 45 44 44 43 38 39 43 38 37 34 36 32 31 30 27 17 14 13 11 13 12 10 6 1 4 3 5 15
6 11 3 3 2 6 7 9 12 30 24 33 28 17 29 35 37 36 40 40 44 51 52 53 52 48 46 46 40 43 37 40 38 38 35 32 23 19 21 18 20 14 9 8 5 3 2 5 14
7 9 7 9 15 10 7 10 7 13 14 34 31 33 30 36 36 39 42 50 52 53 55 56 55 52 51 51 48 47 43 42 40 39 40 40 37 31 28 27 20 17 15 14 11 7 5 5 11
2 6 14 24 19 5 8 11 21 54 28 25 29 36 38 39 41 47 50 52 58 60 59 62 60 66 58 55 46 50 49 46 46 43 35 37 43 44 38 32 31 28 23 20 19 13 11 13 15
7 7 6 3 24 9 9 12 15 23 29 39 31 35 42 44 47 50 53 55 56 61 64 66 68 65 69 60 54 54 52 50 50 47 43 36 45 47 48 39 35 31 28 27 24 21 21 21 20
10 9 14 8 19 10 14 11 8 6 9 22 30 33 32 36 43 48 52 57 59 63 67 71 70 68 65 70 73 70 62 50 47 49 51 46 45 48 54 51 41 36 34 32 28 27 25 28 29
14 11 11 10 12 4 12 23 21 38 25 34 39 43 43 40 42 48 49 53 61 64 69 68 74 72 73 83 83 74 67 60 57 55 57 54 50 49 53 54 46 44 39 40 38 35 34 36 35
16 9 15 5 12 10 16 21 21 41 41 46 52 53 57 55 48 47 52 48 61 62 63 73 80 79 80 85 82 76 74 69 64 62 61 59 58 54 53 49 55 53 53 43 40 41 42 47 47
16 11 14 16 12 5 12 25 29 33 36 56 63 59 62 52 44 44 58 58 52 63 69 75 78 78 79 79 80 80 77 77 72 70 68 69 65 56 60 60 60 74 57 49 52 51 48 54 50
10 11 11 13 7 12 10 17 24 24 37 60 66 71 68 60 45 41 53 63 51 54 67 73 74 74 76 74 77 79 78 77 77 76 74 70 65 63 65 58 60 76 63 55 59 53 55 50 62
11 9 18 11 4 8 7 12 11 21 17 20 46 50 47 39 39 45 39 50 50 53 55 65 68 71 72 77 74 75 79 80 80 76 72 69 68 70 68 61 61 64 53 54 68 64 63 55 68
7 7 3 6 7 12 8 10 13 23 17 20 36 47 41 35 25 27 36 32 40 46 52 57 65 70 71 74 74 71 71 72 73 71 70 69 67 67 70 64 62 64 55 59 69 67 65 68 75
17 11 8 3 5 12 14 15 9 16 15 14 29 15 27 29 30 32 31 35 41 42 47 51 60 65 71 74 71 73 65 63 68 68 68 70 71 69 69 68 62 65 69 61 67 68 75 78 73
9 12 4 3 5 17 15 14 19 6 11 5 7 18 18 20 19 21 24 26 29 36 41 47 51 56 67 71 72 72 67 63 64 59 57 58 64 68 69 65 66 67 64 63 62 72 73 80 84
20 17 11 15 9 10 5 15 10 7 5 14 31 16 20 21 21 23 20 22 25 27 30 35 41 45 58 62 59 64 63 67 62 57 55 53 52 53 58 60 61 64 63 70 68 71 72 79 77
12 18 13 10 4 4 10 14 19 11 17 23 18 19 30 25 24 21 21 21 21 24 27 30 29 34 45 51 46 53 57 63 59 56 54 52 54 53 53 57 60 56 62 67 68 65 72 73 74
11 7 7 6 8 10 15 12 18 10 18 24 16 36 30 27 33 30 22 18 15 13 15 17 19 23 31 38 40 43 46 49 52 53 53 52 52 49 42 46 53 55 56 60 66 66 65 69 68
10 9 10 11 10 9 11 11 3 11 12 12 12 15 28 33 27 25 25 26 19 11 5 5 7 10 17 24 31 39 43 43 46 47 49 51 49 47 49 49 50 53 57 64 60 63 67 70 70
8 21 24 9 8 10 5 27 7 14 15 25 25 19 8 9 17 26 30 23 17 12 7 7 11 15 18 22 28 35 42 47 50 49 50 51 49 48 48 48 52 54 57 59 61 64 67 62 59
Wind_Direction_500mb
173 134 9 311 316 206 121 93 84 110 134 72 50 33 37 49 19 109 134 152 161 183 165 158 155 146 137 123 117 99 84 79 78 78 77 77 82 83 80 96 88 80 79 86 82 83 83 86 89
176 90 344 279 235 202 86 116 152 82 100 107 87 1 266 101 69 133 152 145 148 185 164 164 162 154 146 133 119 102 90 86 82 80 79 79 82 78 88 97 98 81 83 79 80 81 83 88 90
149 102 294 243 281 24 105 113 94 94 116 127 120 64 28 85 103 128 174 147 149 176 178 166 166 161 156 142 128 111 97 88 82 80 77 77 79 82 88 99 106 94 78 78 78 79 83 87 90
90 16 268 277 285 67 59 95 112 125 99 107 64 109 93 106 130 179 152 150 151 161 180 174 171 169 165 157 144 125 112 99 93 88 84 82 84 85 87 95 94 88 83 80 80 81 84 87 92
159 266 266 228 301 96 75 83 141 166 154 151 179 119 108 135 176 163 151 154 154 174 180 187 178 176 173 169 158 142 128 112 104 99 93 87 84 82 87 92 91 86 84 84 84 85 87 90 94
239 265 278 243 217 93 93 140 159 161 128 106 171 229 108 189 162 152 156 156 163 182 184 193 180 180 179 178 174 162 148 133 118 107 97 90 88 91 93 92 91 90 87 84 82 82 85 92 96
266 193 261 285 242 123 152 153 188 186 147 170 122 177 137 181 163 161 158 157 179 186 196 198 184 183 185 187 184 177 167 152 139 124 103 86 80 86 95 99 98 95 92 88 85 85 90 96 106
288 318 262 270 301 175 105 156 197 228 133 132 154 330 152 183 172 175 161 166 183 196 201 197 187 190 191 190 190 189 185 169 146 121 103 89 98 102 99 97 96 97 93 87 86 88 94 109 125
246 337 251 249 240 253 129 173 177 224 118 154 193 110 118 176 178 172 164 175 184 194 203 200 200 196 198 198 193 190 189 177 167 161 138 103 117 114 107 101 95 97 88 84 85 90 97 113 127
214 194 269 21 21 23 133 219 158 192 208 176 192 213 153 186 176 178 175 182 190 197 206 204 205 203 196 205 200 191 190 184 198 202 187 170 136 109 112 109 107 104 94 93 94 99 113 127 137
207 240 12 44 37 35 358 199 272 197 253 210 212 219 196 196 187 187 191 192 193 212 197 205 212 202 201 203 202 202 200 204 204 204 208 213 200 181 198 169 141 134 127 113 104 90 102 123 145
283 243 5 11 30 36 287 294 239 240 246 331 203 196 211 204 206 198 203 197 200 206 200 204 211 210 218 217 211 210 210 202 204 215 211 203 210 214 209 209 192 181 191 206 135 69 96 126 154
212 260 151 238 270 229 289 261 260 272 252 254 260 232 205 216 214 213 208 209 209 204 213 202 206 205 217 223 219 213 219 212 215 213 215 215 219 220 220 225 213 216 219 241 217 220 160 161 173
15 1 239 200 222 212 222 264 224 263 253 241 248 250 221 223 222 214 214 212 211 213 211 213 210 205 211 227 224 219 218 220 222 220 220 219 219 212 222 230 225 225 232 244 225 251 257 227 187
293 287 224 227 213 205 194 268 226 256 251 242 238 243 244 232 223 221 228 221 214 214 213 215 219 198 205 221 225 225 224 222 221 232 225 221 226 224 219 230 225 226 229 230 227 232 237 231 195
223 204 240 304 148 163 167 264 255 242 234 235 241 250 248 246 234 231 226 229 221 216 216 213 223 218 209 213 218 220 226 225 221 225 233 231 235 234 230 227 227 233 231 232 226 229 241 205 201
192 249 212 164 172 128 184 283 106 207 242 255 252 255 251 247 243 244 234 223 230 219 218 220 225 225 210 213 219 219 226 226 225 226 235 240 239 240 237 227 228 227 234 237 235 234 224 207 196
218 209 248 244 187 203 205 257 283 277 249 245 252 255 257 254 243 243 246 231 223 227 219 221 224 228 217 219 224 227 229 232 237 234 236 241 244 242 241 234 226 235 233 224 227 234 219 211 201
284 343 310 13 149 181 228 259 259 269 271 267 260 256 256 255 254 252 242 244 224 226 220 220 225 229 225 225 229 228 230 230 233 234 236 238 244 239 239 244 228 238 227 235 228 230 217 202 202
282 243 274 298 114 166 266 266 273 261 249 249 251 256 258 262 255 248 243 233 233 224 222 223 230 233 233 228 230 230 233 232 234 237 237 239 241 238 239 240 242 243 234 228 234 225 208 207 204
254 243 251 258 313 208 262 271 241 268 245 247 256 259 259 255 256 246 238 228 227 234 230 228 229 231 236 235 230 231 232 234 235 236 237 240 233 226 241 238 236 236 243 241 231 239 223 227 209
248 247 232 244 339 258 133 285 284 295 255 227 245 254 255 255 247 239 235 229 230 239 233 229 229 230 234 240 235 233 235 235 237 239 239 239 233 237 240 243 240 239 234 251 238 232 225 238 221
205 25 86 169 234 303 210 263 243 220 262 248 246 247 254 231 197 210 227 232 234 244 240 230 229 228 232 237 242 238 236 238 240 240 238 238 237 234 239 238 242 242 246 243 235 229 235 233 228
131 92 72 58 199 262 162 204 225 227 231 234 228 227 188 194 211 215 220 223 234 232 232 230 227 227 231 234 238 242 238 237 239 239 241 242 241 241 238 236 237 238 245 242 238 233 233 233 223
157 143 184 267 184 241 161 215 240 182 294 331 328 167 185 211 214 213 219 226 229 232 231 231 230 227 231 235 236 239 240 238 243 244 246 244 239 242 237 232 237 238 243 243 244 239 241 233 224
195 180 175 199 191 260 37 238 250 212 295 254 271 195 195 211 216 218 226 242 242 239 237 235 229 226 235 241 242 240 238 241 243 245 247 243 243 239 233 237 240 238 242 248 239 239 237 233 229
185 219 222 328 86 18 224 265 283 212 240 247 246 185 196 197 207 228 249 251 246 244 241 238 233 232 238 249 246 244 239 240 243 246 244 241 242 237 237 236 240 243 241 244 239 239 238 227 226
171 171 125 221 197 221 256 253 235 310 260 233 215 220 207 215 220 236 226 200 190 190 209 221 228 233 238 252 254 248 243 242 244 242 242 242 238 243 240 242 241 239 247 246 244 236 228 225 224
168 209 211 176 197 179 263 252 86 102 38 22 314 261 214 203 226 218 186 163 159 147 162 227 256 273 264 263 258 255 254 250 247 246 244 242 242 241 243 245 248 247 247 241 237 235 229 226 225
267 205 204 184 215 217 169 250 41 77 53 28 50 49 63 229 213 190 171 163 158 160 176 225 244 253 255 263 265 261 252 248 247 245 245 243 241 244 245 250 247 248 244 240 241 238 232 223 223
Wind_Speed_850mb
5 4 6 10 4 6 9 8 10 12 10 10 12 13 7 28 10 7 33 19 33 27 34 27 24 23 18 14 15 18 20 23 26 27 28 27 26 23 31 39 25 19 27 28 33 33 34 37 41
6 6 6 10 6 4 7 14 9 16 21 14 9 2 2 9 14 25 32 30 38 22 34 30 26 24 18 15 14 17 19 22 24 25 27 28 27 26 30 32 28 21 23 30 33 33 34 37 41
6 7 6 5 6 10 10 5 20 23 15 11 9 7 8 11 13 25 16 40 37 25 27 32 29 25 20 17 15 15 16 19 21 23 25 27 27 26 27 24 26 21 28 31 32 33 34 36 41
7 2 11 5 7 13 13 15 35 21 8 9 6 16 11 16 21 18 34 40 36 26 22 26 29 27 22 19 16 15 15 15 17 19 22 24 26 26 26 24 23 23 27 29 29 31 31 33 38
5 7 7 8 8 10 10 19 26 15 21 20 7 10 12 21 25 21 42 40 37 32 28 26 30 28 24 21 17 15 14 13 15 17 19 21 23 22 22 22 22 24 26 27 28 29 29 32 36
8 6 8 10 11 15 8 11 11 14 17 18 9 3 13 12 20 28 35 39 32 32 29 28 32 30 25 22 19 16 14 12 13 14 17 19 20 20 20 21 22 25 26 27 27 26 26 28 33
4 4 13 15 6 11 9 14 12 13 20 15 5 2 17 17 22 29 32 35 33 31 31 34 34 31 27 23 19 16 14 13 12 11 12 15 17 20 22 23 24 25 27 27 27 26 26 29 33
5 2 15 11 8 3 14 18 6 8 7 21 13 1 12 24 29 28 36 37 35 31 31 30 36 34 31 27 22 19 16 14 15 13 14 14 17 21 23 24 25 25 26 27 27 27 26 30 28
4 4 8 10 12 4 25 12 6 7 10 9 10 3 19 24 30 25 38 37 38 34 33 33 33 35 34 30 27 23 20 17 17 14 12 8 12 17 20 19 20 21 22 23 25 25 25 23 18
6 5 10 17 18 11 18 13 19 5 13 10 13 17 27 25 29 34 39 45 44 42 36 34 35 34 32 30 32 29 25 19 18 16 15 11 8 13 12 12 13 14 14 16 20 21 21 20 13
8 6 12 19 16 12 11 6 10 8 10 30 31 34 31 29 29 37 37 43 46 40 44 41 36 36 40 37 35 34 32 24 25 23 22 14 11 8 7 7 9 8 8 8 9 8 9 9 12
3 18 5 7 5 4 3 7 7 24 27 3 13 13 37 38 37 39 39 44 45 45 44 44 43 38 39 43 38 37 34 36 32 31 30 27 17 14 13 11 13 12 10 6 1 4 3 5 15
6 11 3 3 2 6 7 9 12 30 24 33 28 17 29 35 37 36 40 40 44 51 52 53 52 48 46 46 40 43 37 40 38 38 35 32 23 19 21 18 20 14 9 8 5 3 2 5 14
7 9 7 9 15 10 7 10 7 13 14 34 31 33 30 36 36 39 42 50 52 53 55 56 55 52 51 51 48 47 43 42 40 39 40 40 37 31 28 27 20 17 15 14 11 7 5 5 11
2 6 14 24 19 5 8 11 21 54 28 25 29 36 38 39 41 47 50 52 58 60 59 62 60 66 58 55 46 50 49 46 46 43 35 37 43 44 38 32 31 28 23 20 19 13 11 13 15
7 7 6 3 24 9 9 12 15 23 29 39 31 35 42 44 47 50 53 55 56 61 64 66 68 65 69 60 54 54 52 50 50 47 43 36 45 47 48 39 35 31 28 27 24 21 21 21 20
10 9 14 8 19 10 14 11 8 6 9 22 30 33 32 36 43 48 52 57 59 63 67 71 70 68 65 70 73 70 62 50 47 49 51 46 45 48 54 51 41 36 34 32 28 27 25 28 29
14 11 11 10 12 4 12 23 21 38 25 34 39 43 43 40 42 48 49 53 61 64 69 68 74 72 73 83 83 74 67 60 57 55 57 54 50 49 53 54 46 44 39 40 38 35 34 36 35
16 9 15 5 12 10 16 21 21 41 41 46 52 53 57 55 48 47 52 48 61 62 63 73 80 79 80 85 82 76 74 69 64 62 61 59 58 54 53 49 55 53 53 43 40 41 42 47 47
16 11 14 16 12 5 12 25 29 33 36 56 63 59 62 52 44 44 58 58 52 63 69 75 78 78 79 79 80 80 77 77 72 70 68 69 65 56 60 60 60 74 57 49 52 51 48 54 50
10 11 11 13 7 12 10 17 24 24 37 60 66 71 68 60 45 41 53 63 51 54 67 73 74 74 76 74 77 79 78 77 77 76 74 70 65 63 65 58 60 76 63 55 59 53 55 50 62
11 9 18 11 4 8 7 12 11 21 17 20 46 50 47 39 39 45 39 50 50 53 55 65 68 71 72 77 74 75 79 80 80 76 72 69 68 70 68 61 61 64 53 54 68 64 63 55 68
7 7 3 6 7 12 8 10 13 23 17 20 36 47 41 35 25 27 36 32 40 46 52 57 65 70 71 74 74 71 71 72 73 71 70 69 67 67 70 64 62 64 55 59 69 67 65 68 75
17 11 8 3 5 12 14 15 9 16 15 14 29 15 27 29 30 32 31 35 41 42 47 51 60 65 71 74 71 73 65 63 68 68 68 70 71 69 69 68 62 65 69 61 67 68 75 78 73
9 12 4 3 5 17 15 14 19 6 11 5 7 18 18 20 19 21 24 26 29 36 41 47 51 56 67 71 72 72 67 63 64 59 57 58 64 68 69 65 66 67 64 63 62 72 73 80 84
20 17 11 15 9 10 5 15 10 7 5 14 31 16 20 21 21 23 20 22 25 27 30 35 41 45 58 62 59 64 63 67 62 57 55 53 52 53 58 60 61 64 63 70 68 71 72 79 77
12 18 13 10 4 4 10 14 19 11 17 23 18 19 30 25 24 21 21 21 21 24 27 30 29 34 45 51 46 53 57 63 59 56 54 52 54 53 53 57 60 56 62 67 68 65 72 73 74
11 7 7 6 8 10 15 12 18 10 18 24 16 36 30 27 33 30 22 18 15 13 15 17 19 23 31 38 40 43 46 49 52 53 53 52 52 49 42 46 53 55 56 60 66 66 65 69 68
10 9 10 11 10 9 11 11 3 11 12 12 12 15 28 33 27 25 25 26 19 11 5 5 7 10 17 24 31 39 43 43 46 47 49 51 49 47 49 49 50 53 57 64 60 63 67 70 70
8 21 24 9 8 10 5 27 7 14 15 25 25 19 8 9 17 26 30 23 17 12 7 7 11 15 18 22 28 35 42 47 50 49 50 51 49 48 48 48 52 54 57 59 61 64 67 62 59
Wind_Direction_850mb
173 134 9 311 316 206 121 93 84 110 134 72 50 33 37 49 19 109 134 152 161 183 165 158 155 146 137 123 117 99 84 79 78 78 77 77 82 83 80 96 88 80 79 86 82 83 83 86 89
176 90 344 279 235 202 86 116 152 82 100 107 87 1 266 101 69 133 152 145 148 185 164 164 162 154 146 133 119 102 90 86 82 80 79 79 82 78 88 97 98 81 83 79 80 81 83 88 90
149 102 294 243 281 24 105 113 94 94 116 127 120 64 28 85 103 128 174 147 149 176 178 166 166 161 156 142 128 111 97 88 82 80 77 77 79 82 88 99 106 94 78 78 78 79 83 87 90
90 16 268 277 285 67 59 95 112 125 99 107 64 109 93 106 130 179 152 150 151 161 180 174 171 169 165 157 144 125 112 99 93 88 84 82 84 85 87 95 94 88 83 80 80 81 84 87 92
159 266 266 228 301 96 75 83 141 166 154 151 179 119 108 135 176 163 151 154 154 174 180 187 178 176 173 169 158 142 128 112 104 99 93 87 84 82 87 92 91 86 84 84 84 85 87 90 94
239 265 278 243 217 93 93 140 159 161 128 106 171 229 108 189 162 152 156 156 163 182 184 193 180 180 179 178 174 162 148 133 118 107 97 90 88 91 93 92 91 90 87 84 82 82 85 92 96
266 193 261 285 242 123 152 153 188 186 147 170 122 177 137 181 163 161 158 157 179 186 196 198 184 183 185 187 184 177 167 152 139 124 103 86 80 86 95 99 98 95 92 88 85 85 90 96 106
288 318 262 270 301 175 105 156 197 228 133 132 154 330 152 183 172 175 161 166 183 196 201 197 187 190 191 190 190 189 185 169 146 121 103 89 98 102 99 97 96 97 93 87 86 88 94 109 125
246 337 251 249 240 253 129 173 177 224 118 154 193 110 118 176 178 172 164 175 184 194 203 200 200 196 198 198 193 190 189 177 167 161 138 103 117 114 107 101 95 97 88 84 85 90 97 113 127
214 194 269 21 21 23 133 219 158 192 208 176 192 213 153 186 176 178 175 182 190 197 206 204 205 203 196 205 200 191 190 184 198 202 187 170 136 109 112 109 107 104 94 93 94 99 113 127 137
207 240 12 44 37 35 358 199 272 197 253 210 212 219 196 196 187 187 191 192 193 212 197 205 212 202 201 203 202 202 200 204 204 204 208 213 200 181 198 169 141 134 127 113 104 90 102 123 145
283 243 5 11 30 36 287 294 239 240 246 331 203 196 211 204 206 198 203 197 200 206 200 204 211 210 218 217 211 210 210 202 204 215 211 203 210 214 209 209 192 181 191 206 135 69 96 126 154
212 260 151 238 270 229 289 261 260 272 252 254 260 232 205 216 214 213 208 209 209 204 213 202 206 205 217 223 219 213 219 212 215 213 215 215 219 220 220 225 213 216 219 241 217 220 160 161 173
15 1 239 200 222 212 222 264 224 263 253 241 248 250 221 223 222 214 214 212 211 213 211 213 210 205 211 227 224 219 218 220 222 220 220 219 219 212 222 230 225 225 232 244 225 251 257 227 187
293 287 224 227 213 205 194 268 226 256 251 242 238 243 244 232 223 221 228 221 214 214 213 215 219 198 205 221 225 225 224 222 221 232 225 221 226 224 219 230 225 226 229 230 227 232 237 231 195
223 204 240 304 148 163 167 264 255 242 234 235 241 250 248 246 234 231 226 229 221 216 216 213 223 218 209 213 218 220 226 225 221 225 233 231 235 234 230 227 227 233 231 232 226 229 241 205 201
192 249 212 164 172 128 184 283 106 207 242 255 252 255 251 247 243 244 234 223 230 219 218 220 225 225 210 213 219 219 226 226 225 226 235 240 239 240 237 227 228 227 234 237 235 234 224 207 196
218 209 248 244 187 203 205 257 283 277 249 245 252 255 257 254 243 243 246 231 223 227 219 221 224 228 217 219 224 227 229 232 237 234 236 241 244 242 241 234 226 235 233 224 227 234 219 211 201
284 343 310 13 149 181 228 259 259 269 271 267 260 256 256 255 254 252 242 244 224 226 220 220 225 229 225 225 229 228 230 230 233 234 236 238 244 239 239 244 228 238 227 235 228 230 217 202 202
282 243 274 298 114 166 266 266 273 261 249 249 251 256 258 262 255 248 243 233 233 224 222 223 230 233 233 228 230 230 233 232 234 237 237 239 241 238 239 240 242 243 234 228 234 225 208 207 204
254 243 251 258 313 208 262 271 241 268 245 247 256 259 259 255 256 246 238 228 227 234 230 228 229 231 236 235 230 231 232 234 235 236 237 240 233 226 241 238 236 236 243 241 231 239 223 227 209
248 247 232 244 339 258 133 285 284 295 255 227 245 254 255 255 247 239 235 229 230 239 233 229 229 230 234 240 235 233 235 235 237 239 239 239 233 237 240 243 240 239 234 251 238 232 225 238 221
205 25 86 169 234 303 210 263 243 220 262 248 246 247 254 231 197 210 227 232 234 244 240 230 229 228 232 237 242 238 236 238 240 240 238 238 237 234 239 238 242 242 246 243 235 229 235 233 228
131 92 72 58 199 262 162 204 225 227 231 234 228 227 188 194 211 215 220 223 234 232 232 230 227 227 231 234 238 242 238 237 239 239 241 242 241 241 238 236 237 238 245 242 238 233 233 233 223
157 143 184 267 184 241 161 215 240 182 294 331 328 167 185 211 214 213 219 226 229 232 231 231 230 227 231 235 236 239 240 238 243 244 246 244 239 242 237 232 237 238 243 243 244 239 241 233 224
195 180 175 199 191 260 37 238 250 212 295 254 271 195 195 211 216 218 226 242 242 239 237 235 229 226 235 241 242 240 238 241 243 245 247 243 243 239 233 237 240 238 242 248 239 239 237 233 229
185 219 222 328 86 18 224 265 283 212 240 247 246 185 196 197 207 228 249 251 246 244 241 238 233 232 238 249 246 244 239 240 243 246 244 241 242 237 237 236 240 243 241 244 239 239 238 227 226
171 171 125 221 197 221 256 253 235 310 260 233 215 220 207 215 220 236 226 200 190 190 209 221 228 233 238 252 254 248 243 242 244 242 242 242 238 243 240 242 241 239 247 246 244 236 228 225 224
168 209 211 176 197 179 263 252 86 102 38 22 314 261 214 203 226 218 186 163 159 147 162 227 256 273 264 263 258 255 254 250 247 246 244 242 242 241 243 245 248 247 247 241 237 235 229 226 225
267 205 204 184 215 217 169 250 41 77 53 28 50 49 63 229 213 190 171 163 158 160 176 225 244 253 255 263 265 261 252 248 247 245 245 243 241 244 245 250 247 248 244 240 241 238 232 223 223